Weather History for Rawlins, WY

Change the Weather History Date:

Tuesday, January 1, 2013

  Actual Average Record
Temperature  
Mean Temperature 8 °F 22 °F  
Max Temperature 15 °F 31 °F 46 °F (1998)
Min Temperature 1 °F 12 °F -28 °F (1974)
Degree Days  
Heating Degree Days 57 43  
Month to date heating degree days 57 43  
Since 1 July heating degree days 2677 3497  
Cooling Degree Days 0 0  
Month to date cooling degree days 0 0  
Year to date cooling degree days 0 0  
Moisture  
Dew Point 3 °F    
Average Humidity 74    
Maximum Humidity 87    
Minimum Humidity 61    
Precipitation  
Precipitation T in 0.01 in 0.12 in (1960)
Month to date precipitation T 0.01  
Year to date precipitation T 0.01  
Sea Level Pressure  
Sea Level Pressure 30.26 in    
Wind  
Wind Speed 17 mph (WSW)    
Max Wind Speed 28 mph    
Max Gust Speed 33 mph    
Visibility 9 miles    
Events Snow    
T = Trace of Precipitation, MM = Missing Value Source: NWS Daily Summary

Daily Weather History Graph

Daily Weather History Graph

Search for Another Location

Airport:

Trip Planner

Search our weather history database for the weather conditions in past years. The results will help you decide how hot, cold, wet, or windy it might be!

Date:

Astronomy

Jan. 01, 2013 Rise Set
Actual Time 7:36 AM MST 4:49 PM MST
Civil Twilight 7:04 AM MST 5:20 PM MST
Nautical Twilight 6:29 AM MST 5:55 PM MST
Astronomical Twilight 5:56 AM MST 6:29 PM MST
Moon 9:27 PM MST (1/1) 9:46 AM MST (1/1)
Length of Visible Light 10h 15m
Length of Day
9h 12m
Waning Gibbous, 83% of the Moon is Illuminated
Jan 1
Waning Gibbous
Jan 4
Last Quarter
Jan 11
New
Jan 18
First Quarter
Jan 26
Full

Hourly Weather History & Observations

Time (MST) Temp. Windchill Dew Point Humidity Pressure Visibility Wind Dir Wind Speed Gust Speed Precip Events Conditions
12:28 AM 3.2 °F -7.8 °F -2.2 °F 78% 30.00 in 10.0 mi SW 5.8 mph - N/A   Scattered Clouds
12:53 AM 1.9 °F -10.6 °F -2.9 °F 80% 30.27 in 10.0 mi SW 6.9 mph - N/A   Mostly Cloudy
1:53 AM 8.1 °F -3.2 °F 1.0 °F 73% 30.25 in 10.0 mi West 6.9 mph 18.4 mph N/A   Overcast
2:53 AM 7.0 °F -11.0 °F 1.0 °F 77% 30.27 in 7.0 mi WSW 16.1 mph 23.0 mph N/A   Overcast
3:53 AM 8.1 °F -9.6 °F 1.0 °F 73% 30.28 in 10.0 mi WSW 16.1 mph 24.2 mph 0.00 in   Overcast
4:21 AM 8.6 °F -7.7 °F 1.4 °F 73% 30.05 in 2.0 mi WSW 13.8 mph 23.0 mph 0.00 in Snow Light Snow
4:42 AM 6.8 °F -11.3 °F 1.4 °F 79% 30.05 in 4.0 mi WSW 16.1 mph 23.0 mph 0.00 in Snow Light Snow
4:50 AM 6.8 °F -12.4 °F 1.4 °F 79% 30.05 in 8.0 mi WSW 18.4 mph 29.9 mph 0.00 in   Overcast
4:53 AM 7.0 °F -12.1 °F 1.9 °F 80% 30.31 in 9.0 mi WSW 18.4 mph 29.9 mph 0.00 in   Overcast
6:53 AM 6.1 °F -12.2 °F 1.0 °F 80% 30.34 in 10.0 mi WSW 16.1 mph - N/A   Overcast
7:48 AM 6.8 °F -13.4 °F 1.4 °F 79% 30.08 in 10.0 mi WSW 20.7 mph 25.3 mph N/A   Overcast
7:53 AM 7.0 °F -12.6 °F 1.0 °F 77% 30.36 in 10.0 mi WSW 19.6 mph - 0.00 in   Overcast
8:53 AM 8.1 °F -11.2 °F 3.0 °F 80% 30.38 in 9.0 mi WSW 19.6 mph 24.2 mph 0.00 in   Overcast
9:36 AM 8.6 °F -8.9 °F 3.2 °F 79% 30.10 in 10.0 mi WSW 16.1 mph 20.7 mph 0.00 in   Partly Cloudy
9:53 AM 10.0 °F -7.1 °F 3.0 °F 73% 30.37 in 10.0 mi WSW 16.1 mph 23.0 mph 0.00 in   Partly Cloudy
10:53 AM 12.9 °F -5.3 °F 3.9 °F 67% 30.35 in 10.0 mi WSW 20.7 mph 26.5 mph N/A   Mostly Cloudy
11:53 AM 12.9 °F -6.5 °F 5.0 °F 71% 30.34 in 10.0 mi WSW 24.2 mph - N/A   Overcast
12:53 PM 15.1 °F -3.3 °F 5.0 °F 64% 30.34 in 10.0 mi WSW 23.0 mph 29.9 mph N/A   Partly Cloudy
1:53 PM 14.0 °F -2.5 °F 5.0 °F 67% 30.32 in 10.0 mi WSW 17.3 mph 25.3 mph N/A   Clear
2:53 PM 15.1 °F -2.0 °F 5.0 °F 64% 30.29 in 10.0 mi WSW 19.6 mph 28.8 mph N/A   Clear
3:53 PM 12.9 °F -2.2 °F 3.9 °F 67% 30.27 in 10.0 mi WSW 13.8 mph 25.3 mph N/A   Clear
4:53 PM 12.9 °F 5.2 °F 3.0 °F 65% 30.33 in 10.0 mi Variable 4.6 mph - N/A   Clear
5:53 PM 12.9 °F 1.6 °F 3.9 °F 67% 30.33 in 10.0 mi SSE 8.1 mph - N/A   Overcast
6:53 PM 12.9 °F -3.4 °F 5.0 °F 71% 30.34 in 10.0 mi West 16.1 mph 21.9 mph N/A   Overcast
7:53 PM 12.9 °F -3.4 °F 5.0 °F 71% 30.36 in 10.0 mi WSW 16.1 mph - 0.00 in   Overcast
8:53 PM 14.0 °F -3.4 °F 7.0 °F 74% 30.37 in 4.0 mi WSW 19.6 mph 28.8 mph 0.00 in Snow Light Snow
9:04 PM 14.0 °F -2.5 °F 8.6 °F 79% 30.13 in 2.5 mi WSW 17.3 mph 25.3 mph 0.00 in Snow Light Snow
9:13 PM 14.0 °F -3.4 °F 8.6 °F 79% 30.13 in 3.0 mi WSW 19.6 mph - 0.00 in Snow Light Snow
9:53 PM 12.9 °F -6.5 °F 6.1 °F 74% 30.36 in 10.0 mi WSW 24.2 mph - 0.00 in   Overcast
10:53 PM 12.0 °F -6.0 °F 6.1 °F 77% 30.37 in 10.0 mi WSW 19.6 mph - 0.00 in   Clear
11:53 PM 12.9 °F -3.9 °F 6.1 °F 74% 30.37 in 10.0 mi West 17.3 mph - N/A   Mostly Cloudy